"Sample Date","Sample Time","Sensor Name","Sample Value","Units","Flow Rate","Sample Interval","Sample Volume","Laser Status","Number Channels","Micron Size 0","Counts/Channel 0","Micron Size 1","Counts/Channel 1","Micron Size 2","Counts/Channel 2","Micron Size 3","Counts/Channel 3","Micron Size 4","Counts/Channel 4","Micron Size 5","Counts/Channel 5","Micron Size 6","Counts/Channel 6","Micron Size 7","Counts/Channel 7","Micron Size 8","Counts/Channel 8","Micron Size 9","Counts/Channel 9","Micron Size 10","Counts/Channel 10","Micron Size 11","Counts/Channel 11","Micron Size 12","Counts/Channel 12","Micron Size 13","Counts/Channel 13","Micron Size 14","Counts/Channel 14","Micron Size 15","Counts/Channel 15","Micron Size 16","Counts/Channel 16","Micron Size 17","Counts/Channel 17","Micron Size 18","Counts/Channel 18","Micron Size 19","Counts/Channel 19","Micron Size 20","Counts/Channel 20","Micron Size 21","Counts/Channel 21","Micron Size 22","Counts/Channel 22","Micron Size 23","Counts/Channel 23","Micron Size 24","Counts/Channel 24","Micron Size 25","Counts/Channel 25","Micron Size 26","Counts/Channel 26","Micron Size 27","Counts/Channel 27","Micron Size 28","Counts/Channel 28","Micron Size 29","Counts/Channel 29","Micron Size 30","Counts/Channel 30","Micron Size 31","Counts/Channel 31"
"07/01/06","08:00:04","AMMA06",48947.000,"cc",28311.727,6.00,2831.173,1,6,0.100,26223.000,0.200,18003.000,0.300,3527.000,0.500,659.000,1.000,535.000,5.000,0
"07/01/06","08:00:10","AMMA06",48368.000,"cc",28324.350,6.00,2832.435,1,6,0.100,25728.000,0.200,17866.000,0.300,3536.000,0.500,723.000,1.000,515.000,5.000,0
"07/01/06","08:00:16","AMMA06",48597.000,"cc",28356.391,6.00,2835.639,1,6,0.100,25909.000,0.200,17890.000,0.300,3552.000,0.500,733.000,1.000,512.000,5.000,1.000
"07/01/06","08:00:22","AMMA06",48414.000,"cc",28282.328,6.00,2828.233,1,6,0.100,25863.000,0.200,17794.000,0.300,3512.000,0.500,750.000,1.000,495.000,5.000,0
"07/01/06","08:00:28","AMMA06",48610.000,"cc",28329.203,6.00,2832.920,1,6,0.100,26003.000,0.200,17900.000,0.300,3485.000,0.500,702.000,1.000,520.000,5.000,0
"07/01/06","08:00:34","AMMA06",48518.000,"cc",28380.623,6.00,2838.063,1,6,0.100,25861.000,0.200,17849.000,0.300,3576.000,0.500,727.000,1.000,505.000,5.000,0
"07/01/06","08:00:40","AMMA06",48297.000,"cc",28328.920,6.00,2832.892,1,6,0.100,25741.000,0.200,17829.000,0.300,3494.000,0.500,689.000,1.000,544.000,5.000,0
"07/01/06","08:00:46","AMMA06",48130.000,"cc",28307.975,6.00,2830.798,1,6,0.100,25732.000,0.200,17657.000,0.300,3494.000,0.500,716.000,1.000,531.000,5.000,0
"07/01/06","08:00:52","AMMA06",48110.000,"cc",28290.408,6.00,2829.041,1,6,0.100,25526.000,0.200,17805.000,0.300,3544.000,0.500,702.000,1.000,533.000,5.000,0
"07/01/06","08:00:58","AMMA06",48467.000,"cc",28314.750,6.00,2831.475,1,6,0.100,25598.000,0.200,17984.000,0.300,3556.000,0.500,811.000,1.000,517.000,5.000,1.000
"07/01/06","08:01:04","AMMA06",48764.000,"cc",28299.356,6.00,2829.936,1,6,0.100,25732.000,0.200,18110.000,0.300,3703.000,0.500,704.000,1.000,514.000,5.000,1.000
"07/01/06","08:01:10","AMMA06",48504.000,"cc",28357.889,6.00,2835.789,1,6,0.100,25644.000,0.200,18148.000,0.300,3531.000,0.500,690.000,1.000,491.000,5.000,0
"07/01/06","08:01:16","AMMA06",48557.000,"cc",28310.170,6.00,2831.017,1,6,0.100,25710.000,0.200,17952.000,0.300,3601.000,0.500,757.000,1.000,535.000,5.000,2.000
"07/01/06","08:01:22","AMMA06",48323.000,"cc",28310.035,6.00,2831.004,1,6,0.100,25376.000,0.200,17999.000,0.300,3693.000,0.500,754.000,1.000,501.000,5.000,0
"07/01/06","08:01:28","AMMA06",48437.000,"cc",28328.748,6.00,2832.875,1,6,0.100,25610.000,0.200,17982.000,0.300,3566.000,0.500,751.000,1.000,527.000,5.000,1.000
"07/01/06","08:01:34","AMMA06",48606.000,"cc",28249.481,6.00,2824.948,1,6,0.100,25603.000,0.200,18048.000,0.300,3675.000,0.500,734.000,1.000,545.000,5.000,1.000
"07/01/06","08:01:40","AMMA06",48716.000,"cc",28311.881,6.00,2831.188,1,6,0.100,25688.000,0.200,18030.000,0.300,3706.000,0.500,711.000,1.000,581.000,5.000,0
"07/01/06","08:01:46","AMMA06",48343.000,"cc",28303.559,6.00,2830.356,1,6,0.100,25330.000,0.200,18035.000,0.300,3720.000,0.500,740.000,1.000,516.000,5.000,2.000
"07/01/06","08:01:52","AMMA06",48500.000,"cc",28363.090,6.00,2836.309,1,6,0.100,25376.000,0.200,18204.000,0.300,3671.000,0.500,737.000,1.000,512.000,5.000,0
"07/01/06","08:01:58","AMMA06",48879.000,"cc",28320.709,6.00,2832.071,1,6,0.100,25496.000,0.200,18444.000,0.300,3693.000,0.500,762.000,1.000,484.000,5.000,0
"07/01/06","08:02:04","AMMA06",48532.000,"cc",28307.260,6.00,2830.726,1,6,0.100,25592.000,0.200,18046.000,0.300,3710.000,0.500,708.000,1.000,476.000,5.000,0
"07/01/06","08:02:10","AMMA06",49194.000,"cc",28292.994,6.00,2829.300,1,6,0.100,25747.000,0.200,18524.000,0.300,3738.000,0.500,674.000,1.000,510.000,5.000,1.000
"07/01/06","08:02:16","AMMA06",48754.000,"cc",28366.152,6.00,2836.616,1,6,0.100,25623.000,0.200,18164.000,0.300,3680.000,0.500,745.000,1.000,540.000,5.000,2.000
"07/01/06","08:02:22","AMMA06",48795.000,"cc",28309.061,6.00,2830.906,1,6,0.100,25695.000,0.200,18072.000,0.300,3745.000,0.500,757.000,1.000,525.000,5.000,1.000
"07/01/06","08:02:28","AMMA06",49044.000,"cc",28332.061,6.00,2833.206,1,6,0.100,25671.000,0.200,18365.000,0.300,3728.000,0.500,737.000,1.000,539.000,5.000,4.000
"07/01/06","08:02:34","AMMA06",49142.000,"cc",28284.600,6.00,2828.460,1,6,0.100,25844.000,0.200,18367.000,0.300,3664.000,0.500,733.000,1.000,534.000,5.000,0
"07/01/06","08:02:40","AMMA06",48509.000,"cc",28293.162,6.00,2829.316,1,6,0.100,25124.000,0.200,18412.000,0.300,3749.000,0.500,732.000,1.000,491.000,5.000,1.000
"07/01/06","08:02:46","AMMA06",48542.000,"cc",28357.867,6.00,2835.787,1,6,0.100,25274.000,0.200,18224.000,0.300,3772.000,0.500,730.000,1.000,541.000,5.000,1.000
"07/01/06","08:02:52","AMMA06",48657.000,"cc",28324.076,6.00,2832.408,1,6,0.100,25248.000,0.200,18419.000,0.300,3710.000,0.500,729.000,1.000,549.000,5.000,2.000
"07/01/06","08:02:58","AMMA06",48340.000,"cc",28348.539,6.00,2834.854,1,6,0.100,25368.000,0.200,17840.000,0.300,3827.000,0.500,753.000,1.000,551.000,5.000,1.000
"07/01/06","08:03:04","AMMA06",48334.000,"cc",28299.199,6.00,2829.920,1,6,0.100,25056.000,0.200,18249.000,0.300,3773.000,0.500,751.000,1.000,504.000,5.000,1.000
"07/01/06","08:03:10","AMMA06",48477.000,"cc",28290.453,6.00,2829.045,1,6,0.100,25344.000,0.200,18260.000,0.300,3695.000,0.500,679.000,1.000,498.000,5.000,1.000
"07/01/06","08:03:16","AMMA06",48980.000,"cc",28310.389,6.00,2831.039,1,6,0.100,25398.000,0.200,18461.000,0.300,3812.000,0.500,775.000,1.000,534.000,5.000,0
"07/01/06","08:03:22","AMMA06",48643.000,"cc",28334.764,6.00,2833.477,1,6,0.100,25202.000,0.200,18363.000,0.300,3806.000,0.500,758.000,1.000,514.000,5.000,0
"07/01/06","08:03:28","AMMA06",48838.000,"cc",28320.381,6.00,2832.038,1,6,0.100,25441.000,0.200,18392.000,0.300,3737.000,0.500,700.000,1.000,566.000,5.000,2.000
"07/01/06","08:03:34","AMMA06",48358.000,"cc",28316.732,6.00,2831.673,1,6,0.100,25127.000,0.200,18330.000,0.300,3789.000,0.500,652.000,1.000,460.000,5.000,0
"07/01/06","08:03:40","AMMA06",48594.000,"cc",28288.553,6.00,2828.856,1,6,0.100,25330.000,0.200,18194.000,0.300,3827.000,0.500,723.000,1.000,519.000,5.000,1.000
"07/01/06","08:03:46","AMMA06",48678.000,"cc",28286.883,6.00,2828.689,1,6,0.100,25472.000,0.200,18347.000,0.300,3655.000,0.500,679.000,1.000,525.000,5.000,0
"07/01/06","08:03:52","AMMA06",48614.000,"cc",28340.426,6.00,2834.043,1,6,0.100,25481.000,0.200,18232.000,0.300,3627.000,0.500,724.000,1.000,550.000,5.000,0
"07/01/06","08:03:58","AMMA06",48103.000,"cc",28293.871,6.00,2829.387,1,6,0.100,25245.000,0.200,17937.000,0.300,3665.000,0.500,724.000,1.000,530.000,5.000,2.000
"07/01/06","08:04:04","AMMA06",48155.000,"cc",28326.863,6.00,2832.687,1,6,0.100,25191.000,0.200,18017.000,0.300,3734.000,0.500,687.000,1.000,526.000,5.000,0
"07/01/06","08:04:10","AMMA06",48270.000,"cc",28321.313,6.00,2832.131,1,6,0.100,25308.000,0.200,18063.000,0.300,3660.000,0.500,741.000,1.000,497.000,5.000,1.000
"07/01/06","08:04:16","AMMA06",48612.000,"cc",28337.029,6.00,2833.703,1,6,0.100,25532.000,0.200,18255.000,0.300,3607.000,0.500,733.000,1.000,483.000,5.000,2.000
"07/01/06","08:04:22","AMMA06",48035.000,"cc",28297.252,6.00,2829.725,1,6,0.100,25352.000,0.200,17912.000,0.300,3516.000,0.500,739.000,1.000,515.000,5.000,1.000
"07/01/06","08:04:28","AMMA06",48465.000,"cc",28313.648,6.00,2831.365,1,6,0.100,25541.000,0.200,18066.000,0.300,3608.000,0.500,725.000,1.000,524.000,5.000,1.000
"07/01/06","08:04:34","AMMA06",48166.000,"cc",28318.531,6.00,2831.853,1,6,0.100,25370.000,0.200,17846.000,0.300,3643.000,0.500,774.000,1.000,532.000,5.000,1.000
"07/01/06","08:04:40","AMMA06",48078.000,"cc",28340.986,6.00,2834.099,1,6,0.100,25412.000,0.200,17764.000,0.300,3625.000,0.500,745.000,1.000,532.000,5.000,0
"07/01/06","08:04:46","AMMA06",47995.000,"cc",28295.971,6.00,2829.597,1,6,0.100,25408.000,0.200,17840.000,0.300,3512.000,0.500,715.000,1.000,520.000,5.000,0
"07/01/06","08:04:52","AMMA06",48210.000,"cc",28346.902,6.00,2834.690,1,6,0.100,25527.000,0.200,17841.000,0.300,3589.000,0.500,729.000,1.000,524.000,5.000,0
"07/01/06","08:04:58","AMMA06",48532.000,"cc",28247.000,6.00,2824.700,1,6,0.100,25576.000,0.200,18074.000,0.300,3639.000,0.500,718.000,1.000,524.000,5.000,1.000
"07/01/06","08:05:04","AMMA06",48801.000,"cc",28347.949,6.00,2834.795,1,6,0.100,25904.000,0.200,17970.000,0.300,3645.000,0.500,787.000,1.000,494.000,5.000,1.000
"07/01/06","08:05:10","AMMA06",48076.000,"cc",28301.693,6.00,2830.169,1,6,0.100,25678.000,0.200,17637.000,0.300,3497.000,0.500,737.000,1.000,526.000,5.000,1.000
"07/01/06","08:05:16","AMMA06",47980.000,"cc",28331.346,6.00,2833.135,1,6,0.100,25586.000,0.200,17664.000,0.300,3502.000,0.500,723.000,1.000,504.000,5.000,1.000
"07/01/06","08:05:22","AMMA06",48098.000,"cc",28335.447,6.00,2833.545,1,6,0.100,25547.000,0.200,17734.000,0.300,3604.000,0.500,695.000,1.000,516.000,5.000,2.000
"07/01/06","08:05:28","AMMA06",48094.000,"cc",28292.607,6.00,2829.261,1,6,0.100,25753.000,0.200,17602.000,0.300,3560.000,0.500,699.000,1.000,480.000,5.000,0
"07/01/06","08:05:34","AMMA06",48046.000,"cc",28278.828,6.00,2827.883,1,6,0.100,25716.000,0.200,17651.000,0.300,3453.000,0.500,732.000,1.000,494.000,5.000,0
"07/01/06","08:05:40","AMMA06",48116.000,"cc",28332.535,6.00,2833.254,1,6,0.100,25807.000,0.200,17697.000,0.300,3462.000,0.500,696.000,1.000,452.000,5.000,2.000
"07/01/06","08:05:46","AMMA06",48239.000,"cc",28327.801,6.00,2832.780,1,6,0.100,25821.000,0.200,17706.000,0.300,3510.000,0.500,715.000,1.000,486.000,5.000,1.000
"07/01/06","08:05:52","AMMA06",48099.000,"cc",28327.498,6.00,2832.750,1,6,0.100,25805.000,0.200,17600.000,0.300,3446.000,0.500,748.000,1.000,499.000,5.000,1.000
"07/01/06","08:05:58","AMMA06",48498.000,"cc",28281.006,6.00,2828.101,1,6,0.100,25832.000,0.200,17888.000,0.300,3568.000,0.500,711.000,1.000,498.000,5.000,1.000
"07/01/06","08:06:04","AMMA06",48109.000,"cc",28338.104,6.00,2833.811,1,6,0.100,25747.000,0.200,17702.000,0.300,3453.000,0.500,682.000,1.000,525.000,5.000,0
"07/01/06","08:06:10","AMMA06",47350.000,"cc",28344.479,6.00,2834.448,1,6,0.100,25292.000,0.200,17302.000,0.300,3496.000,0.500,745.000,1.000,513.000,5.000,2.000
"07/01/06","08:06:16","AMMA06",47641.000,"cc",28319.906,6.00,2831.991,1,6,0.100,25706.000,0.200,17230.000,0.300,3459.000,0.500,754.000,1.000,492.000,5.000,0
"07/01/06","08:06:22","AMMA06",47614.000,"cc",28322.125,6.00,2832.213,1,6,0.100,25539.000,0.200,17374.000,0.300,3430.000,0.500,753.000,1.000,518.000,5.000,0
"07/01/06","08:06:28","AMMA06",47422.000,"cc",28341.051,6.00,2834.105,1,6,0.100,25496.000,0.200,17353.000,0.300,3443.000,0.500,667.000,1.000,461.000,5.000,2.000
"07/01/06","08:06:34","AMMA06",47459.000,"cc",28299.129,6.00,2829.913,1,6,0.100,25620.000,0.200,17309.000,0.300,3377.000,0.500,670.000,1.000,483.000,5.000,0
"07/01/06","08:06:40","AMMA06",47876.000,"cc",28268.408,6.00,2826.841,1,6,0.100,26060.000,0.200,17221.000,0.300,3384.000,0.500,722.000,1.000,489.000,5.000,0
"07/01/06","08:06:46","AMMA06",47152.000,"cc",28332.354,6.00,2833.236,1,6,0.100,25695.000,0.200,16927.000,0.300,3328.000,0.500,714.000,1.000,487.000,5.000,1.000
"07/01/06","08:06:52","AMMA06",47478.000,"cc",28322.010,6.00,2832.201,1,6,0.100,25912.000,0.200,17060.000,0.300,3297.000,0.500,696.000,1.000,512.000,5.000,1.000
"07/01/06","08:06:58","AMMA06",47606.000,"cc",28312.945,6.00,2831.295,1,6,0.100,25962.000,0.200,17112.000,0.300,3339.000,0.500,699.000,1.000,494.000,5.000,0
"07/01/06","08:07:04","AMMA06",47381.000,"cc",28340.176,6.00,2834.018,1,6,0.100,25721.000,0.200,17156.000,0.300,3354.000,0.500,700.000,1.000,449.000,5.000,1.000
"07/01/06","08:07:10","AMMA06",47485.000,"cc",28341.967,6.00,2834.197,1,6,0.100,25850.000,0.200,17027.000,0.300,3369.000,0.500,716.000,1.000,522.000,5.000,1.000
"07/01/06","08:07:16","AMMA06",47398.000,"cc",28273.412,6.00,2827.341,1,6,0.100,25816.000,0.200,17093.000,0.300,3286.000,0.500,721.000,1.000,482.000,5.000,0
"07/01/06","08:07:22","AMMA06",47460.000,"cc",28369.238,6.00,2836.924,1,6,0.100,25729.000,0.200,17268.000,0.300,3274.000,0.500,700.000,1.000,489.000,5.000,0
"07/01/06","08:07:28","AMMA06",47089.000,"cc",28313.016,6.00,2831.302,1,6,0.100,25665.000,0.200,16927.000,0.300,3266.000,0.500,733.000,1.000,497.000,5.000,1.000
"07/01/06","08:07:34","AMMA06",47103.000,"cc",28317.412,6.00,2831.742,1,6,0.100,25511.000,0.200,17127.000,0.300,3278.000,0.500,702.000,1.000,485.000,5.000,0
"07/01/06","08:07:40","AMMA06",46997.000,"cc",28274.242,6.00,2827.424,1,6,0.100,25778.000,0.200,16753.000,0.300,3265.000,0.500,701.000,1.000,498.000,5.000,2.000
"07/01/06","08:07:46","AMMA06",46809.000,"cc",28299.520,6.00,2829.952,1,6,0.100,25642.000,0.200,16757.000,0.300,3211.000,0.500,720.000,1.000,479.000,5.000,0
"07/01/06","08:07:52","AMMA06",46769.000,"cc",28317.020,6.00,2831.702,1,6,0.100,25369.000,0.200,16905.000,0.300,3297.000,0.500,690.000,1.000,507.000,5.000,1.000
"07/01/06","08:07:58","AMMA06",46707.000,"cc",28287.828,6.00,2828.783,1,6,0.100,25399.000,0.200,16908.000,0.300,3244.000,0.500,688.000,1.000,466.000,5.000,2.000
"07/01/06","08:08:04","AMMA06",47066.000,"cc",28335.889,6.00,2833.589,1,6,0.100,25574.000,0.200,16965.000,0.300,3327.000,0.500,699.000,1.000,499.000,5.000,2.000
"07/01/06","08:08:10","AMMA06",47166.000,"cc",28340.424,6.00,2834.043,1,6,0.100,25424.000,0.200,17072.000,0.300,3434.000,0.500,742.000,1.000,494.000,5.000,0
"07/01/06","08:08:16","AMMA06",47031.000,"cc",28297.086,6.00,2829.709,1,6,0.100,25439.000,0.200,16965.000,0.300,3385.000,0.500,728.000,1.000,514.000,5.000,0
"07/01/06","08:08:22","AMMA06",46408.000,"cc",28356.397,6.00,2835.640,1,6,0.100,24975.000,0.200,16858.000,0.300,3369.000,0.500,725.000,1.000,479.000,5.000,2.000
"07/01/06","08:08:28","AMMA06",47191.000,"cc",28314.258,6.00,2831.426,1,6,0.100,25404.000,0.200,17126.000,0.300,3452.000,0.500,708.000,1.000,501.000,5.000,0
"07/01/06","08:08:34","AMMA06",46871.000,"cc",28348.229,6.00,2834.823,1,6,0.100,25330.000,0.200,16854.000,0.300,3453.000,0.500,745.000,1.000,488.000,5.000,1.000
"07/01/06","08:08:40","AMMA06",46877.000,"cc",28284.588,6.00,2828.459,1,6,0.100,25404.000,0.200,16896.000,0.300,3310.000,0.500,706.000,1.000,561.000,5.000,0
"07/01/06","08:08:46","AMMA06",47147.000,"cc",28319.229,6.00,2831.923,1,6,0.100,25538.000,0.200,16889.000,0.300,3475.000,0.500,769.000,1.000,476.000,5.000,0
"07/01/06","08:08:52","AMMA06",47483.000,"cc",28305.272,6.00,2830.527,1,6,0.100,25520.000,0.200,17231.000,0.300,3518.000,0.500,736.000,1.000,478.000,5.000,0
"07/01/06","08:08:58","AMMA06",46748.000,"cc",28277.705,6.00,2827.771,1,6,0.100,25102.000,0.200,17046.000,0.300,3388.000,0.500,689.000,1.000,523.000,5.000,0
"07/01/06","08:09:04","AMMA06",46977.000,"cc",28405.453,6.00,2840.545,1,6,0.100,25176.000,0.200,17173.000,0.300,3473.000,0.500,687.000,1.000,468.000,5.000,0
"07/01/06","08:09:10","AMMA06",46923.000,"cc",28302.391,6.00,2830.239,1,6,0.100,25082.000,0.200,17118.000,0.300,3430.000,0.500,769.000,1.000,523.000,5.000,1.000
"07/01/06","08:09:16","AMMA06",46999.000,"cc",28287.965,6.00,2828.797,1,6,0.100,25107.000,0.200,17183.000,0.300,3462.000,0.500,717.000,1.000,530.000,5.000,0
"07/01/06","08:09:22","AMMA06",46998.000,"cc",28322.205,6.00,2832.221,1,6,0.100,24950.000,0.200,17342.000,0.300,3468.000,0.500,756.000,1.000,481.000,5.000,1.000
"07/01/06","08:09:28","AMMA06",46963.000,"cc",28354.277,6.00,2835.428,1,6,0.100,25288.000,0.200,17085.000,0.300,3374.000,0.500,692.000,1.000,524.000,5.000,0
"07/01/06","08:09:34","AMMA06",47647.000,"cc",28327.113,6.00,2832.711,1,6,0.100,25409.000,0.200,17553.000,0.300,3443.000,0.500,743.000,1.000,498.000,5.000,1.000
"07/01/06","08:09:40","AMMA06",46834.000,"cc",28307.926,6.00,2830.793,1,6,0.100,25085.000,0.200,17089.000,0.300,3397.000,0.500,738.000,1.000,525.000,5.000,0
"07/01/06","08:09:46","AMMA06",47421.000,"cc",28282.320,6.00,2828.232,1,6,0.100,25259.000,0.200,17360.000,0.300,3497.000,0.500,755.000,1.000,550.000,5.000,0
"07/01/06","08:09:52","AMMA06",46944.000,"cc",28328.356,6.00,2832.836,1,6,0.100,24865.000,0.200,17353.000,0.300,3520.000,0.500,679.000,1.000,526.000,5.000,1.000
"07/01/06","08:09:58","AMMA06",47380.000,"cc",28383.891,6.00,2838.389,1,6,0.100,25026.000,0.200,17605.000,0.300,3484.000,0.500,724.000,1.000,540.000,5.000,1.000
"07/01/06","08:10:04","AMMA06",47164.000,"cc",28301.754,6.00,2830.176,1,6,0.100,25039.000,0.200,17421.000,0.300,3525.000,0.500,678.000,1.000,499.000,5.000,2.000
"07/01/06","08:10:10","AMMA06",47342.000,"cc",28305.748,6.00,2830.575,1,6,0.100,25024.000,0.200,17536.000,0.300,3583.000,0.500,722.000,1.000,476.000,5.000,1.000
"07/01/06","08:10:16","AMMA06",47407.000,"cc",28374.373,6.00,2837.438,1,6,0.100,24959.000,0.200,17654.000,0.300,3564.000,0.500,731.000,1.000,498.000,5.000,1.000
"07/01/06","08:10:22","AMMA06",47108.000,"cc",28267.779,6.00,2826.778,1,6,0.100,24924.000,0.200,17488.000,0.300,3472.000,0.500,724.000,1.000,500.000,5.000,0
"07/01/06","08:10:28","AMMA06",47345.000,"cc",28279.568,6.00,2827.957,1,6,0.100,24986.000,0.200,17678.000,0.300,3497.000,0.500,724.000,1.000,458.000,5.000,2.000
"07/01/06","08:10:34","AMMA06",47543.000,"cc",28296.326,6.00,2829.633,1,6,0.100,25070.000,0.200,17745.000,0.300,3483.000,0.500,718.000,1.000,527.000,5.000,0
"07/01/06","08:10:40","AMMA06",47290.000,"cc",28348.014,6.00,2834.802,1,6,0.100,25017.000,0.200,17498.000,0.300,3558.000,0.500,721.000,1.000,494.000,5.000,2.000
"07/01/06","08:10:46","AMMA06",46983.000,"cc",28324.996,6.00,2832.500,1,6,0.100,24919.000,0.200,17397.000,0.300,3489.000,0.500,683.000,1.000,494.000,5.000,1.000
"07/01/06","08:10:52","AMMA06",47374.000,"cc",28315.195,6.00,2831.520,1,6,0.100,25043.000,0.200,17486.000,0.300,3605.000,0.500,720.000,1.000,519.000,5.000,1.000
"07/01/06","08:10:58","AMMA06",47299.000,"cc",28326.459,6.00,2832.646,1,6,0.100,25108.000,0.200,17422.000,0.300,3526.000,0.500,736.000,1.000,506.000,5.000,1.000
"07/01/06","08:11:04","AMMA06",47395.000,"cc",28376.756,6.00,2837.676,1,6,0.100,25073.000,0.200,17496.000,0.300,3564.000,0.500,733.000,1.000,528.000,5.000,1.000
"07/01/06","08:11:10","AMMA06",47565.000,"cc",28292.959,6.00,2829.296,1,6,0.100,25340.000,0.200,17551.000,0.300,3428.000,0.500,730.000,1.000,516.000,5.000,0
"07/01/06","08:11:16","AMMA06",47435.000,"cc",28295.072,6.00,2829.507,1,6,0.100,24925.000,0.200,17669.000,0.300,3556.000,0.500,753.000,1.000,532.000,5.000,0
"07/01/06","08:11:22","AMMA06",47327.000,"cc",28339.598,6.00,2833.960,1,6,0.100,25027.000,0.200,17475.000,0.300,3558.000,0.500,769.000,1.000,496.000,5.000,2.000
"07/01/06","08:11:28","AMMA06",47357.000,"cc",28310.856,6.00,2831.086,1,6,0.100,25236.000,0.200,17393.000,0.300,3447.000,0.500,763.000,1.000,516.000,5.000,2.000
"07/01/06","08:11:34","AMMA06",46881.000,"cc",28255.445,6.00,2825.545,1,6,0.100,25143.000,0.200,17038.000,0.300,3457.000,0.500,737.000,1.000,506.000,5.000,0
"07/01/06","08:11:40","AMMA06",47873.000,"cc",28315.834,6.00,2831.584,1,6,0.100,25530.000,0.200,17535.000,0.300,3527.000,0.500,738.000,1.000,543.000,5.000,0
"07/01/06","08:11:46","AMMA06",47261.000,"cc",28351.940,6.00,2835.194,1,6,0.100,25308.000,0.200,17349.000,0.300,3372.000,0.500,694.000,1.000,536.000,5.000,2.000
"07/01/06","08:11:52","AMMA06",47406.000,"cc",28337.260,6.00,2833.726,1,6,0.100,25451.000,0.200,17341.000,0.300,3392.000,0.500,670.000,1.000,551.000,5.000,1.000
"07/01/06","08:11:58","AMMA06",47180.000,"cc",28278.496,6.00,2827.850,1,6,0.100,25199.000,0.200,17363.000,0.300,3400.000,0.500,705.000,1.000,513.000,5.000,0
"07/01/06","08:12:04","AMMA06",47415.000,"cc",28340.897,6.00,2834.090,1,6,0.100,25487.000,0.200,17147.000,0.300,3526.000,0.500,720.000,1.000,534.000,5.000,1.000
"07/01/06","08:12:10","AMMA06",47458.000,"cc",28282.240,6.00,2828.224,1,6,0.100,25326.000,0.200,17422.000,0.300,3472.000,0.500,699.000,1.000,537.000,5.000,2.000
"07/01/06","08:12:16","AMMA06",47320.000,"cc",28375.775,6.00,2837.578,1,6,0.100,25411.000,0.200,17310.000,0.300,3441.000,0.500,701.000,1.000,456.000,5.000,1.000
"07/01/06","08:12:22","AMMA06",47145.000,"cc",28294.076,6.00,2829.408,1,6,0.100,25176.000,0.200,17328.000,0.300,3461.000,0.500,702.000,1.000,478.000,5.000,0
"07/01/06","08:12:28","AMMA06",47136.000,"cc",28274.600,6.00,2827.460,1,6,0.100,25091.000,0.200,17380.000,0.300,3476.000,0.500,677.000,1.000,511.000,5.000,1.000
"07/01/06","08:12:34","AMMA06",47404.000,"cc",28329.432,6.00,2832.943,1,6,0.100,25368.000,0.200,17237.000,0.300,3539.000,0.500,764.000,1.000,496.000,5.000,0
"07/01/06","08:12:40","AMMA06",46919.000,"cc",28303.307,6.00,2830.331,1,6,0.100,25226.000,0.200,17185.000,0.300,3343.000,0.500,698.000,1.000,466.000,5.000,1.000
"07/01/06","08:12:46","AMMA06",47651.000,"cc",28329.633,6.00,2832.963,1,6,0.100,25746.000,0.200,17284.000,0.300,3398.000,0.500,696.000,1.000,527.000,5.000,0
"07/01/06","08:12:52","AMMA06",46970.000,"cc",28317.885,6.00,2831.789,1,6,0.100,25247.000,0.200,17146.000,0.300,3393.000,0.500,713.000,1.000,471.000,5.000,0
"07/01/06","08:12:58","AMMA06",47042.000,"cc",28317.711,6.00,2831.771,1,6,0.100,25124.000,0.200,17239.000,0.300,3417.000,0.500,752.000,1.000,510.000,5.000,0
"07/01/06","08:13:04","AMMA06",46964.000,"cc",28279.830,6.00,2827.983,1,6,0.100,25382.000,0.200,16966.000,0.300,3444.000,0.500,716.000,1.000,454.000,5.000,2.000
"07/01/06","08:13:10","AMMA06",47015.000,"cc",28314.727,6.00,2831.473,1,6,0.100,25482.000,0.200,17050.000,0.300,3296.000,0.500,680.000,1.000,505.000,5.000,2.000
"07/01/06","08:13:16","AMMA06",47447.000,"cc",28305.121,6.00,2830.512,1,6,0.100,25752.000,0.200,17048.000,0.300,3382.000,0.500,755.000,1.000,510.000,5.000,0
"07/01/06","08:13:22","AMMA06",47717.000,"cc",28301.582,6.00,2830.158,1,6,0.100,25739.000,0.200,17349.000,0.300,3395.000,0.500,749.000,1.000,484.000,5.000,1.000
"07/01/06","08:13:28","AMMA06",47326.000,"cc",28377.223,6.00,2837.722,1,6,0.100,25410.000,0.200,17116.000,0.300,3568.000,0.500,764.000,1.000,466.000,5.000,2.000
"07/01/06","08:13:34","AMMA06",47361.000,"cc",28300.297,6.00,2830.030,1,6,0.100,25322.000,0.200,17471.000,0.300,3359.000,0.500,722.000,1.000,486.000,5.000,1.000
"07/01/06","08:13:40","AMMA06",47310.000,"cc",28351.475,6.00,2835.148,1,6,0.100,25377.000,0.200,17243.000,0.300,3443.000,0.500,727.000,1.000,518.000,5.000,2.000
"07/01/06","08:13:46","AMMA06",47630.000,"cc",28292.869,6.00,2829.287,1,6,0.100,25451.000,0.200,17443.000,0.300,3439.000,0.500,772.000,1.000,524.000,5.000,1.000
"07/01/06","08:13:52","AMMA06",47387.000,"cc",28272.096,6.00,2827.210,1,6,0.100,25489.000,0.200,17214.000,0.300,3473.000,0.500,700.000,1.000,511.000,5.000,0
"07/01/06","08:13:58","AMMA06",47585.000,"cc",28374.147,6.00,2837.415,1,6,0.100,25577.000,0.200,17254.000,0.300,3492.000,0.500,722.000,1.000,540.000,5.000,0
"07/01/06","08:14:04","AMMA06",47680.000,"cc",28341.375,6.00,2834.138,1,6,0.100,25538.000,0.200,17532.000,0.300,3384.000,0.500,733.000,1.000,492.000,5.000,1.000